Hourly Data Report for October 07, 2017

All times are specified in Local Standard Time (LST). Add 1 hour to adjust for Daylight Saving Time where and when it is observed.

NAPPAN AUTO
NOVA SCOTIA

45°45'34.400" N
64°14'29.200" W
19.80 m
8203702
71311
XNP

Download Data

Hourly Data (October 2017)
Hourly Data Report for October 7, 2017
Temp Definition
°C
Dew Point Temp Definition
°C
Rel Hum Definition
%
Wind Dir Definition
10's deg

Wind Spd Definition
km/h
Visibility Definition
km
Stn Press Definition
kPa
Hmdx Definition


Wind Chill Definition


Weather Definition


TIME
00:00 8.6 7.9 95 17 8   101.74     LegendNANA
01:00 8.0 7.5 97 17 8   101.79     LegendNANA
02:00 5.9 5.5 98 18 9   101.82     LegendNANA
03:00 6.3 6.1 98 19 4   101.86     LegendNANA
04:00 5.8 5.7 99 19 5   101.92     LegendNANA
05:00 5.1 5.0 99 19 6   101.97     LegendNANA
06:00 5.9 5.8 99 17 7   102.02     LegendNANA
07:00 7.7 7.4 98 17 8   102.03     LegendNANA
08:00 7.9 7.6 98 19 8   102.09     LegendNANA
09:00 9.6 9.4 98 19 9   102.16     LegendNANA
10:00 11.1 10.8 98 19 9   102.15     LegendNANA
11:00 16.7 8.7 59 20 9   102.13     LegendNANA
12:00 17.9 4.6 41 26 19   102.10     LegendNANA
13:00 18.5 5.0 41 26 19   102.03     LegendNANA
14:00 19.1 6.0 42 24 17   101.98     LegendNANA
15:00 19.4 6.9 44 24 19   101.95     LegendNANA
16:00 18.6 8.0 50 24 22   101.89     LegendNANA
17:00 17.0 9.4 61 25 12   101.87     LegendNANA
18:00 14.3 9.5 73 20 11   101.85     LegendNANA
19:00 13.5 9.1 75 18 11   101.79     LegendNANA
20:00 13.2 9.0 75 18 16   101.78     LegendNANA
21:00 12.8 9.3 79 18 11   101.80     LegendNANA
22:00 14.2 11.8 86 18 18   101.69     LegendNANA
23:00 15.0 12.4 85 18 19   101.61     LegendNANA

Notes on Data Quality.

Legend

  • E = Estimated
  • M = Missing
  • NA = Not Available
  • ‡ = Partner data that is not subject to review by the National Climate Archives
Date modified: